Back to catalog

STARLINK-35671

AliveCommunicationsVLEO
NORAD 66392·PAYLOAD·🇺🇸 United States

Launched Nov 8, 2025 from Cape Canaveral Space Force Station

Loading…

Next Passes (next 24 hours)

TLE

FreshSource: CelesTrak SupGP

Epoch: Sep 14, 2026, 15:13 UTC

1 66392C 25257N   26257.63451389 -.00095790  00000+0 -28342-2 0  2577
2 66392  53.1583  56.8466 0001006 102.4677  44.9846 15.34393648    14

Track STARLINK-35671 in real time with AllMySat

Download on the App Store